TimeEST,TemperatureF,Dew PointF,Humidity,Sea Level PressureIn,VisibilityMPH,Wind Direction,Wind SpeedMPH,Gust SpeedMPH,PrecipitationIn,Events,Conditions,WindDirDegrees,DateUTC
12:53 AM,30.9,21.0,67,30.35,10.0,West,6.9,-,N/A,,Overcast,280,2013-01-15 05:53:00
1:53 AM,30.9,21.9,69,30.33,10.0,West,3.5,-,N/A,,Overcast,270,2013-01-15 06:53:00
2:53 AM,30.9,19.9,64,30.34,10.0,NW,6.9,-,N/A,,Overcast,310,2013-01-15 07:53:00
3:53 AM,30.0,19.9,66,30.34,10.0,West,6.9,-,N/A,,Overcast,280,2013-01-15 08:53:00
4:53 AM,27.0,18.0,69,30.33,10.0,WNW,4.6,-,N/A,,Clear,290,2013-01-15 09:53:00
5:53 AM,27.0,18.0,69,30.34,10.0,WSW,3.5,-,N/A,,Clear,240,2013-01-15 10:53:00
6:53 AM,21.2,15.8,80,30.34,10.0,Calm,Calm,-,N/A,,Clear,0,2013-01-15 11:53:00
7:53 AM,19.9,16.0,85,30.38,10.0,Calm,Calm,-,N/A,,Scattered Clouds,0,2013-01-15 12:53:00
8:53 AM,25.0,21.9,88,30.40,10.0,Calm,Calm,-,N/A,,Overcast,0,2013-01-15 13:53:00
9:53 AM,27.0,21.9,81,30.40,10.0,Calm,Calm,-,N/A,,Overcast,0,2013-01-15 14:53:00
10:53 AM,28.9,23.0,78,30.39,10.0,Calm,Calm,-,N/A,,Overcast,0,2013-01-15 15:53:00
11:53 AM,30.0,19.9,66,30.36,10.0,Calm,Calm,-,N/A,,Overcast,0,2013-01-15 16:53:00
12:53 PM,30.9,17.1,57,30.33,10.0,WSW,4.6,-,N/A,,Overcast,240,2013-01-15 17:53:00
1:53 PM,32.0,18.0,56,30.32,10.0,WSW,9.2,-,N/A,,Overcast,240,2013-01-15 18:53:00
2:53 PM,32.0,18.0,56,30.32,10.0,WSW,9.2,-,N/A,,Overcast,250,2013-01-15 19:53:00
3:53 PM,32.0,19.0,59,30.31,10.0,SW,8.1,-,N/A,,Overcast,230,2013-01-15 20:53:00
4:53 PM,32.0,18.0,56,30.30,10.0,SW,11.5,-,N/A,,Overcast,230,2013-01-15 21:53:00
5:53 PM,30.9,19.0,61,30.31,10.0,SW,9.2,-,N/A,,Overcast,230,2013-01-15 22:53:00
6:53 PM,30.0,19.0,64,30.31,10.0,SW,6.9,-,N/A,,Mostly Cloudy,230,2013-01-15 23:53:00
7:53 PM,28.9,19.9,69,30.30,10.0,SSW,6.9,-,N/A,,Clear,210,2013-01-16 00:53:00
8:53 PM,28.9,19.9,69,30.28,10.0,SW,9.2,-,N/A,,Partly Cloudy,220,2013-01-16 01:53:00
9:53 PM,28.0,19.9,72,30.27,10.0,SSW,5.8,-,N/A,,Clear,210,2013-01-16 02:53:00
10:53 PM,27.0,19.9,75,30.28,10.0,SW,5.8,-,N/A,,Clear,230,2013-01-16 03:53:00
11:53 PM,27.0,19.9,75,30.25,10.0,SSW,5.8,-,N/A,,Clear,210,2013-01-16 04:53:00